Simultaneous Nadir Overpasses (SNOs) Predictions

Prediction of SNOs between GOES-15 and NOAA-19 Satellite Orbit:

Table of predicted SNOs for the next 14.0 days since TLE Epoch: 1/10/2025
Index Date Time (GOES-15) GOES-15 Lat,Lon NOAA-19 Lat,Lon Distance(km) Time Diff (sec)
1 01/12/2025 17:44:41 0.03, 61.45 -0.70, 58.28 361.25 80
2 01/13/2025 17:32:10 0.03, 61.46 -0.02, 61.33 15.57 80
3 01/14/2025 17:16:58 0.03, 61.47 0.67, 64.37 330.27 80
4 01/17/2025 05:35:43 -0.02, 61.48 0.34, 59.90 180.27 80
5 01/18/2025 05:25:52 -0.02, 61.49 -0.35, 62.95 166.16 80
6 01/20/2025 17:44:52 0.01, 61.51 -0.73, 58.42 353.42 80
7 01/21/2025 17:32:20 0.01, 61.53 -0.02, 61.46 8.11 80
8 01/22/2025 17:17:09 0.02, 61.54 0.69, 64.50 337.66 80
